Location: Hope
(40.9110°N, 74.9680°W)
Time: 00:51:37
(UTC-04:00)

N. Korean satellite - Pass Details

Date: 26 January 2019
Orbit: 457 x 508 km, 97.2° (Epoch: 19 April)

Event Time Altitude Azimuth Distance (km) Brightness Sun altitude
Rises 05:17:34 0° 30° (NNE) 2,602 10.6 -22.3°
Reaches altitude 10° 05:20:19 10° 52° (NE) 1,703 9.9 -21.8°
Maximum altitude 05:22:40 16° 92° (E) 1,349 9.8 -21.4°
Drops below altitude 10° 05:24:59 10° 133° (SE) 1,675 10.0 -20.9°
Sets 05:27:39 0° 155° (SSE) 2,538 10.7 -20.4°
